Russell, KS

1:22 AM CST on February 26, 2017 (GMT -0600)
Russell Municipal

Weather History for KRSL - October, 2011

Change the Weather History Date:

Friday, October 28, 2011

  Actual Average Record
Temperature  
Mean Temperature 42 °F -  
Max Temperature 61 °F 61 °F 89 °F (2016)
Min Temperature 24 °F 39 °F 19 °F (1952)
Degree Days  
Heating Degree Days 23    
Moisture  
Dew Point 24 °F    
Average Humidity 54    
Maximum Humidity 91    
Minimum Humidity 20    
Precipitation  
Precipitation 0.00 in - - ()
Sea Level Pressure  
Sea Level Pressure 30.23 in    
Wind  
Wind Speed 12 mph (West)    
Max Wind Speed 15 mph    
Max Gust Speed 18 mph    
Visibility 10 miles    
Events      
Averages and records for this station are not official NWS values.
T = Trace of Precipitation, MM = Missing Value Source: NWS Daily Summary

Daily Weather History Graph

Daily Weather History Graph

Search for Another Location

Airport or City:

Trip Planner

Search our weather history database for the weather conditions in past years. The results will help you decide how hot, cold, wet, or windy it might be!

Date:

Astronomy

Oct. 28, 2011 Rise Set
Actual Time 7:57 AM CDT 6:39 PM CDT
Civil Twilight 7:30 AM CDT 7:07 PM CDT
Nautical Twilight 6:59 AM CDT 7:38 PM CDT
Astronomical Twilight 6:28 AM CDT 8:09 PM CDT
Moon 10:13 AM CDT (10/28) 8:05 PM CDT (10/28)
Length of Visible Light 11h 36m
Length of Day
10h 41m
Waxing Crescent, 5% of the Moon is Illuminated
Oct 28
Waxing Crescent
Nov 2
First Quarter
Nov 10
Full
Nov 18
Last Quarter
Nov 25
New

Hourly Weather History & Observations

Time (CDT) Temp. Windchill Dew Point Humidity Pressure Visibility Wind Dir Wind Speed Gust Speed Precip Events Conditions
12:53 AM 32.0 °F 23.0 °F 25.0 °F 75% 30.22 in 10.0 mi WSW 11.5 mph - N/A   Clear
1:53 AM 32.0 °F 22.5 °F 25.0 °F 75% 30.22 in 10.0 mi WSW 12.7 mph - N/A   Clear
2:53 AM 33.8 °F 24.3 °F 24.8 °F 70% 30.19 in 10.0 mi WSW 13.8 mph - N/A   Clear
3:53 AM 32.0 °F 22.1 °F 25.0 °F 75% 30.22 in 10.0 mi WSW 13.8 mph - N/A   Clear
4:53 AM 30.0 °F 20.0 °F 24.1 °F 79% 30.22 in 10.0 mi WSW 12.7 mph - N/A   Clear
5:53 AM 28.0 °F 17.5 °F 23.0 °F 81% 30.23 in 10.0 mi WSW 12.7 mph - N/A   Clear
6:53 AM 27.0 °F - 23.0 °F 85% 30.24 in 10.0 mi North - - N/A   Clear
7:53 AM 24.1 °F 13.1 °F 21.9 °F 91% 30.27 in 10.0 mi WSW 11.5 mph - N/A   Clear
8:53 AM 28.0 °F 18.1 °F 25.0 °F 88% 30.29 in 10.0 mi WSW 11.5 mph - N/A   Clear
9:53 AM 35.6 °F 27.5 °F 28.4 °F 75% 30.26 in 10.0 mi West 11.5 mph - N/A   Clear
10:53 AM 45.0 °F 39.7 °F 28.9 °F 53% 30.30 in 10.0 mi WNW 10.4 mph - N/A   Clear
11:53 AM 51.8 °F - 28.4 °F 41% 30.26 in 10.0 mi NNW 12.7 mph 16.1 mph N/A   Clear
12:53 PM 55.9 °F - 26.1 °F 32% 30.28 in 10.0 mi NNW 15.0 mph 18.4 mph N/A   Clear
1:53 PM 59.0 °F - 21.9 °F 24% 30.25 in 10.0 mi NNW 12.7 mph 18.4 mph N/A   Clear
2:53 PM 60.1 °F - 21.0 °F 22% 30.22 in 10.0 mi WNW 11.5 mph - N/A   Clear
3:53 PM 60.1 °F - 21.0 °F 22% 30.22 in 10.0 mi West 11.5 mph - N/A   Clear
4:53 PM 60.1 °F - 19.0 °F 20% 30.21 in 10.0 mi NW 13.8 mph - N/A   Clear
5:53 PM 57.9 °F - 21.0 °F 24% 30.22 in 10.0 mi WNW 12.7 mph - N/A   Clear
6:53 PM 52.0 °F - 21.0 °F 30% 30.23 in 10.0 mi West 6.9 mph - N/A   Clear
7:53 PM 51.8 °F - 21.2 °F 30% 30.20 in 10.0 mi North - - N/A   Clear
8:53 PM 45.0 °F 40.6 °F 23.0 °F 42% 30.24 in 10.0 mi SW 8.1 mph - N/A   Clear
9:53 PM 39.2 °F 33.6 °F 23.0 °F 52% 30.19 in 10.0 mi SW 8.1 mph - N/A   Clear
10:53 PM 37.0 °F 30.4 °F 23.0 °F 57% 30.22 in 10.0 mi WSW 9.2 mph - N/A   Clear
11:53 PM 37.9 °F 31.5 °F 23.0 °F 55% 30.19 in 10.0 mi WSW 9.2 mph - N/A   Clear